Overview Statistics Trail Chart Weather Telemetry Raw packets
 

This is the latest recevied weather packets stored in our database for station/object SR8WXL-13. If no packets are shown the sender has not sent any weather packets the latest 10 day(s).

<< 21 22 23 24 25 26 27 >>
Time Temp. Humidity Pressure Rain* Wind** Luminosity Snow
1788201103 18.89° C 92% 1029.8 hPa 0 mm - - -
1788200243 18.89° C 90% 1029.7 hPa 0 mm - - -
1788199404 18.89° C 88% 1029.4 hPa 0 mm - - -
1788198653 18.89° C 89% 1029.7 hPa 0 mm - - -
1788197819 18.89° C 87% 1029.5 hPa 0 mm - - -
1788196918 18.89° C 87% 1029.6 hPa 0 mm - - -
1788196109 20° C 84% 1029.8 hPa 0 mm - - -
1788195353 21.11° C 80% 1029.9 hPa 0 mm - - -
1788194604 21.11° C 78% 1029.4 hPa 0 mm - - -
1788193793 21.11° C 75% 1029.3 hPa 0 mm - - -
1788192914 22.22° C 68% 1029 hPa 0 mm - - -
1788192028 22.78° C 64% 1029.1 hPa 0 mm - - -
1788191248 27.78° C 45% 1029.1 hPa 0 mm - - -
1788190512 27.78° C 42% 1028.7 hPa 0 mm - - -
1788189619 30° C 40% 1028.5 hPa 0 mm - - -
1788188738 30° C 37% 1028.4 hPa 0 mm - - -
1788187918 31.11° C 38% 1028.2 hPa 0 mm - - -
1788187173 31.11° C 38% 1028.1 hPa 0 mm - - -
1788186413 31.11° C 38% 1028.3 hPa 0 mm - - -
1788185534 31.11° C 37% 1028.4 hPa 0 mm - - -
1788184800 31.11° C 37% 1028.7 hPa 0 mm - - -
1788183901 31.11° C 36% 1029 hPa 0 mm - - -
1788183078 31.11° C 38% 1029 hPa 0 mm - - -
1788182263 31.11° C 37% 1029.2 hPa 0 mm - - -
1788181402 31.11° C 38% 1029.4 hPa 0 mm - - -

* Rain latest hour (hover to see other rain measurements)
** Current wind speed in m/s (hover to see current wind gust speed)